When you browse on this site, cookies collect data to enhance your experience and personalize the content and advertising you see.
Visit our Privacy Policy to learn more. By continuing to use the site, you agree to this use of cookies and data.
  • In United Kingdom
  • List of Countries
  • For 7 days
  • Water Temperature
  • Satellite Maps
  • Weather Map
  • Weather Widgets
  • user-avatar
    Login

    Hourly Weather Belmopan

    Today, 24 March, Sunday

    Time Temperature Precipitation Wind Pressure Humidity
    00:00 +21°C° 0 mm 1 mps 756 mmHg 74%
    01:00 +20°C° 0 mm 1 mps 756 mmHg 76%
    02:00 +20°C° 0 mm 1 mps 755 mmHg 78%
    03:00 +20°C° 0 mm 1 mps 755 mmHg 80%
    04:00 +17°C° 0 mm 0 mps 755 mmHg 81%
    05:00 +17°C° 0 mm 0 mps 756 mmHg 82%
    06:00 +17°C° 0 mm 0 mps 756 mmHg 84%
    07:00 +20°C° 0 mm 0 mps 756 mmHg 73%
    08:00 +26°C° 0 mm 1 mps 756 mmHg 63%
    09:00 +29°C° 0 mm 1 mps 757 mmHg 52%
    10:00 +30°C° 0 mm 1 mps 756 mmHg 49%
    11:00 +32°C° 0 mm 1 mps 756 mmHg 45%
    12:00 +34°C° 0 mm 2 mps 756 mmHg 42%
    13:00 +34°C° 0 mm 2 mps 755 mmHg 42%
    14:00 +34°C° 0 mm 2 mps 754 mmHg 43%
    15:00 +34°C° 0 mm 2 mps 754 mmHg 43%
    16:00 +32°C° 0 mm 2 mps 753 mmHg 51%
    17:00 +30°C° 0 mm 2 mps 753 mmHg 59%
    18:00 +28°C° 0 mm 2 mps 753 mmHg 67%
    19:00 +26°C° 0 mm 1 mps 754 mmHg 75%
    20:00 +25°C° 0 mm 1 mps 754 mmHg 82%
    21:00 +23°C° 0 mm 1 mps 755 mmHg 90%
    22:00 +23°C° 0 mm 1 mps 755 mmHg 91%
    23:00 +23°C° 0 mm 1 mps 755 mmHg 93%

    Tomorrow, 25 March, Monday

    Time Temperature Precipitation Wind Pressure Humidity
    00:00 +22°C° 0 mm 1 mps 755 mmHg 94%
    01:00 +22°C° 0 mm 1 mps 754 mmHg 95%
    02:00 +20°C° 0 mm 0 mps 754 mmHg 96%
    03:00 +20°C° 0 mm 0 mps 753 mmHg 97%
    04:00 +19°C° 0 mm 0 mps 754 mmHg 97%
    05:00 +19°C° 0 mm 0 mps 754 mmHg 98%
    06:00 +19°C° 0 mm 0 mps 754 mmHg 99%
    07:00 +22°C° 0 mm 0 mps 755 mmHg 87%
    08:00 +24°C° 0 mm 0 mps 755 mmHg 76%
    09:00 +27°C° 0 mm 0 mps 756 mmHg 65%
    10:00 +31°C° 0 mm 1 mps 755 mmHg 57%
    11:00 +33°C° 0 mm 1 mps 755 mmHg 48%
    12:00 +34°C° 0 mm 1 mps 755 mmHg 40%
    13:00 +35°C° 0 mm 1 mps 754 mmHg 39%
    14:00 +36°C° 0 mm 2 mps 753 mmHg 37%
    15:00 +36°C° 0 mm 2 mps 752 mmHg 35%
    16:00 +34°C° 0 mm 2 mps 752 mmHg 42%
    17:00 +31°C° 0 mm 2 mps 752 mmHg 49%
    18:00 +29°C° 0 mm 2 mps 752 mmHg 56%
    19:00 +27°C° 0 mm 1 mps 753 mmHg 63%
    20:00 +25°C° 0 mm 1 mps 753 mmHg 70%
    21:00 +23°C° 0 mm 1 mps 754 mmHg 77%
    22:00 +23°C° 0 mm 1 mps 754 mmHg 78%
    23:00 +23°C° 0 mm 1 mps 754 mmHg 79%

    Day after tomorrow, 26 March, Tuesday

    Time Temperature Precipitation Wind Pressure Humidity
    00:00 +22°C° 0 mm 1 mps 754 mmHg 80%
    01:00 +22°C° 0 mm 1 mps 754 mmHg 82%
    02:00 +21°C° 0 mm 1 mps 753 mmHg 84%
    03:00 +21°C° 0 mm 1 mps 753 mmHg 87%
    04:00 +21°C° 0 mm 1 mps 753 mmHg 87%
    05:00 +21°C° 0 mm 1 mps 754 mmHg 88%
    06:00 +20°C° 0 mm 1 mps 754 mmHg 88%
    07:00 +22°C° 0 mm 0 mps 755 mmHg 76%
    08:00 +25°C° 0 mm 0 mps 755 mmHg 64%
    09:00 +29°C° 0 mm 0 mps 756 mmHg 52%
    10:00 +32°C° 0.1 mm 1 mps 756 mmHg 51%
    11:00 +32°C° 0.1 mm 1 mps 755 mmHg 49%
    12:00 +34°C° 0.1 mm 2 mps 755 mmHg 48%
    13:00 +34°C° 0.3 mm 2 mps 754 mmHg 49%
    14:00 +34°C° 0.3 mm 2 mps 753 mmHg 50%
    15:00 +34°C° 0.3 mm 2 mps 752 mmHg 51%
    16:00 +31°C° 0.2 mm 2 mps 753 mmHg 56%
    17:00 +30°C° 0.2 mm 2 mps 753 mmHg 62%
    18:00 +28°C° 0.2 mm 2 mps 753 mmHg 67%
    19:00 +27°C° 0 mm 1 mps 754 mmHg 74%
    20:00 +25°C° 0 mm 1 mps 754 mmHg 82%
    21:00 +24°C° 0 mm 1 mps 755 mmHg 89%
    22:00 +21°C° 0.1 mm 0 mps 755 mmHg 91%
    23:00 +21°C° 0.1 mm 0 mps 755 mmHg 94%

    27 March, Wednesday

    Time Temperature Precipitation Wind Pressure Humidity
    00:00 +21°C° 0.1 mm 0 mps 755 mmHg 96%
    01:00 +20°C° 0.1 mm 0 mps 755 mmHg 97%
    02:00 +20°C° 0.1 mm 0 mps 754 mmHg 98%
    03:00 +20°C° 0.1 mm 0 mps 754 mmHg 99%
    04:00 +20°C° 0 mm 0 mps 754 mmHg 99%
    05:00 +20°C° 0 mm 0 mps 755 mmHg 99%
    06:00 +20°C° 0 mm 0 mps 755 mmHg 99%
    07:00 +22°C° 0 mm 0 mps 756 mmHg 92%
    08:00 +25°C° 0 mm 1 mps 756 mmHg 84%
    09:00 +27°C° 0 mm 1 mps 757 mmHg 77%
    10:00 +29°C° 0 mm 1 mps 757 mmHg 66%
    11:00 +31°C° 0 mm 2 mps 756 mmHg 54%
    12:00 +34°C° 0 mm 2 mps 756 mmHg 43%
    13:00 +34°C° 0 mm 2 mps 755 mmHg 41%
    14:00 +35°C° 0 mm 2 mps 754 mmHg 39%
    15:00 +35°C° 0 mm 2 mps 753 mmHg 37%
    16:00 +32°C° 0 mm 2 mps 754 mmHg 45%
    17:00 +30°C° 0 mm 2 mps 754 mmHg 53%
    18:00 +28°C° 0 mm 2 mps 754 mmHg 61%
    19:00 +27°C° 0 mm 2 mps 754 mmHg 70%
    20:00 +25°C° 0 mm 1 mps 755 mmHg 78%
    21:00 +24°C° 0 mm 1 mps 755 mmHg 87%
    22:00 +23°C° 0 mm 1 mps 755 mmHg 90%
    23:00 +21°C° 0 mm 0 mps 755 mmHg 93%

    28 March, Thursday

    Time Temperature Precipitation Wind Pressure Humidity
    00:00 +20°C° 0 mm 0 mps 755 mmHg 97%
    01:00 +20°C° 0.1 mm 0 mps 755 mmHg 97%
    02:00 +20°C° 0.1 mm 0 mps 755 mmHg 98%
    03:00 +20°C° 0.1 mm 0 mps 755 mmHg 99%
    04:00 +20°C° 0 mm 0 mps 755 mmHg 99%
    05:00 +19°C° 0 mm 0 mps 756 mmHg 99%
    06:00 +19°C° 0 mm 0 mps 756 mmHg 99%
    07:00 +21°C° 0.1 mm 0 mps 756 mmHg 93%
    08:00 +24°C° 0.1 mm 1 mps 757 mmHg 87%
    09:00 +26°C° 0.1 mm 1 mps 757 mmHg 81%
    10:00 +26°C° 0.4 mm 1 mps 757 mmHg 81%
    11:00 +26°C° 0.4 mm 1 mps 756 mmHg 81%
    12:00 +26°C° 0.4 mm 1 mps 755 mmHg 82%
    13:00 +28°C° 0.2 mm 2 mps 755 mmHg 74%
    14:00 +29°C° 0.2 mm 2 mps 754 mmHg 66%
    15:00 +30°C° 0.2 mm 2 mps 754 mmHg 58%
    16:00 +29°C° 0.1 mm 2 mps 754 mmHg 64%
    17:00 +27°C° 0.1 mm 2 mps 754 mmHg 70%
    18:00 +26°C° 0.1 mm 2 mps 754 mmHg 75%
    19:00 +25°C° 0 mm 1 mps 754 mmHg 81%
    20:00 +24°C° 0 mm 1 mps 755 mmHg 87%
    21:00 +23°C° 0 mm 1 mps 755 mmHg 93%
    22:00 +23°C° 0 mm 1 mps 755 mmHg 94%
    23:00 +22°C° 0 mm 1 mps 755 mmHg 95%

    29 March, Friday

    Time Temperature Precipitation Wind Pressure Humidity
    00:00 +22°C° 0 mm 1 mps 755 mmHg 97%
    01:00 +20°C° 0 mm 0 mps 754 mmHg 97%
    02:00 +20°C° 0 mm 0 mps 754 mmHg 97%
    03:00 +20°C° 0 mm 0 mps 753 mmHg 97%
    04:00 +20°C° 0 mm 0 mps 754 mmHg 97%
    05:00 +20°C° 0 mm 0 mps 754 mmHg 97%
    06:00 +19°C° 0 mm 0 mps 754 mmHg 98%
    07:00 +24°C° 0 mm 1 mps 755 mmHg 86%
    08:00 +26°C° 0 mm 1 mps 755 mmHg 75%
    09:00 +29°C° 0 mm 2 mps 755 mmHg 64%
    10:00 +29°C° 0 mm 2 mps 755 mmHg 60%
    11:00 +30°C° 0 mm 2 mps 754 mmHg 56%
    12:00 +31°C° 0 mm 2 mps 754 mmHg 53%
    13:00 +31°C° 0 mm 2 mps 753 mmHg 52%
    14:00 +31°C° 0 mm 2 mps 752 mmHg 52%
    15:00 +32°C° 0 mm 2 mps 752 mmHg 52%
    16:00 +30°C° 0 mm 2 mps 752 mmHg 58%
    17:00 +29°C° 0 mm 2 mps 752 mmHg 64%
    18:00 +27°C° 0 mm 2 mps 752 mmHg 70%
    19:00 +26°C° 0 mm 2 mps 753 mmHg 76%
    20:00 +25°C° 0 mm 1 mps 753 mmHg 82%
    21:00 +23°C° 0 mm 1 mps 754 mmHg 88%
    22:00 +23°C° 0 mm 1 mps 753 mmHg 90%
    23:00 +22°C° 0 mm 1 mps 753 mmHg 92%
    Show more